www.pogodaiklimat.ru

Погода и климат >> Архив погоды >> Канада >> Baker Lake Airport


ПОГОДА в Baker Lake Airport

  • Прогноз погоды в Baker Lake Airport
  • Монитор погоды в Baker Lake Airport
  • Климат города

АРХИВ ПОГОДЫ в Baker Lake Airport

Время (UTC), дата Ветер
(напр.,м/с)
 
Видим.   Явления Облачность Т
(С)
Тd
(С)
f
(%)
Тe
(С)
Тes
(С)
Комфортность P
(гПа)
Po
(гПа)
Тmin
(С)
Tmax
(С)
R
(мм)
S
(см)
06 17.03 СЗ 18 400 м ледяные иглы {снег} ясно -19.5 -22.0 80 -36 -36 опасность
обморожения
1003.9 1001.5 -22.3 -11.3 0.8 63
09 17.03 СЗ 18 <100 м н/о -21.9 -24.6 79 -40 -40 опасность
обморожения
1009.6 1007.1
12 17.03 СЗ 18 <100 м сильная метель {снег} н/о -23.4 -26.2 78 -42 -42 опасность
обморожения
1013.4 1010.9 -23.4 -11.3 0.0 54
15 17.03 СЗ 16 <100 м н/о -24.2 -27.2 76 -42 -42 опасность
обморожения
1016.3 1013.8
18 17.03 СЗ 17 200 м сильная метель ясно -23.9 -27.2 74 -42 -42 опасность
обморожения
1019.0 1016.5 54
21 17.03 З 17 200 м ясно -23.7 -27.1 73 -42 -42 опасность
обморожения
1021.4 1018.9
00 18.03 СЗ 11 12 км ясно -24.8 -28.2 73 -41 -41 опасность
обморожения
1024.4 1021.9
03 18.03 З 9 16 км ясно -25.9 -29.6 71 -41 -41 опасность
обморожения
1025.3 1022.8
06 18.03 ЮЗ 4 24 км позёмок ясно -29.0 -32.4 72 -40 -40 опасность
обморожения
1026.1 1023.5 73
09 18.03 Ю 3 24 км ясно -29.2 -32.9 70 -39 -39 опасность
обморожения
1025.1 1022.6
12 18.03 З 2 24 км позёмок 3/0
[Ac trans Cc]
-29.6 -33.3 70 -37 -37 опасность
обморожения
1024.1 1021.5 -30.4 0.0 57
15 18.03 ЮЗ 2 30 км ясно -28.7 -32.4 70 -35 -33 опасность
обморожения
1022.9 1020.4
18 18.03 Ю 2 30 км ясно -26.7 -30.6 69 -32 -28 опасность
обморожения
1021.4 1018.9 -30.4 -26.4 57
21 18.03 ЮВ 2 30 км ясно -22.8 -26.4 72 -28 -25 1019.5 1017.0
00 19.03 Ю 2 30 км 1/0
[Ac trans Ci fib]
-23.1 -26.1 76 -30 -29 1018.1 1015.6 -30.4 -21.5 57
03 19.03 ЮЗ 2 24 км 1/0
[]
-26.0 -28.8 77 -33 -33 опасность
обморожения
1016.7 1014.2
06 19.03 С 1 24 км 1/0
[Ac As]
-27.2 -30.1 76 -28 -28 1015.2 1012.7 -30.4 -21.5
09 19.03 Ю 1 24 км 4/0
[]
-26.1 -29.0 76 -30 -30 1013.2 1010.7
12 19.03 С 1 30 км 5/0
[Ac trans]
-25.2 -28.1 77 -26 -26 1011.7 1009.2 -28.3 -21.5 57
15 19.03 С 5 30 км 10/0 2000 м
[]
-22.3 -25.6 74 -33 -33 опасность
обморожения
1010.6 1008.1
18 19.03 С 9 1200 м слабый снег 10/10 600 м
[Sc]
-21.3 -24.6 75 -35 -35 опасность
обморожения
1010.7 1008.2 -28.3 -20.7 0.0 57
21 19.03 С 12 1200 м 8/8 600 м
[]
-23.4 -27.0 72 -39 -39 опасность
обморожения
1009.0 1006.5
00 20.03 С 15 400 м сильная метель {снег} 1/0
[Ac trans]
-29.1 -32.5 72 -48 -48 опасность
обморожения
1009.7 1007.2 -29.1 -20.7 2 59
03 20.03 С 15 200 м ясно -32.4 -35.9 71 -53 -53 опасность
обморожения
1012.4 1009.9
06 20.03 С 16 400 м сильная метель ясно -33.6 -37.2 70 -55 -55 опасность
обморожения
1013.6 1011.1 -33.6 -20.7 23
09 20.03 СЗ 16 400 м ясно -33.5 -36.9 71 -55 -55 опасность
обморожения
1014.9 1012.4
12 20.03 СЗ 17 400 м сильная метель ясно -33.4 -37.0 70 -55 -55 опасность
обморожения
1016.5 1013.9 -33.7 -20.7 59
15 20.03 СЗ 15 400 м ясно -32.2 -36.0 69 -53 -53 опасность
обморожения
1017.8 1015.2
18 20.03 СЗ 19 200 м сильная метель ясно -29.6 -33.0 72 -51 -51 опасность
обморожения
1017.9 1015.3 -33.7 -29.6 60
21 20.03 СЗ 15 200 м ясно -27.7 -31.2 72 -47 -47 опасность
обморожения
1019.8 1017.2
00 21.03 СЗ 12 200 м сильная метель ясно -27.8 -31.1 73 -45 -45 опасность
обморожения
1021.6 1019.0 -33.7 -27.6 60
03 21.03 СЗ 9 600 м ясно -28.1 -31.4 73 -44 -44 опасность
обморожения
1023.0 1020.4
06 21.03 СЗ 11 2400 м {метель} ясно -28.6 -32.0 72 -45 -45 опасность
обморожения
1023.7 1021.1 -33.7 -27.6 173
09 21.03 СЗ 12 6000 м ясно -29.3 -32.9 71 -47 -47 опасность
обморожения
1024.6 1022.0
12 21.03 З 8 24 км 3/3 1500 м
[Sc]
-30.4 -34.5 67 -46 -46 опасность
обморожения
1025.9 1023.3 -30.4 -27.6 49
15 21.03 З 4 40 км ясно -28.2 -33.4 61 -39 -38 опасность
обморожения
1025.1 1022.5
18 21.03 З 3 40 км 1/0
[Ci sp]
-25.6 -30.4 64 -34 -30 опасность
обморожения
1024.2 1021.6 -30.4 -25.5 59
21 21.03 З 4 40 км 9/0
[]
-23.6 -28.8 62 -34 -32 опасность
обморожения
1022.8 1020.3
00 22.03 ЮЗ 2 40 км ясно -24.8 -28.8 69 -30 -30 1021.3 1018.8 -30.4 -23.2 49
03 22.03 ЮЗ 3 24 км ясно -27.2 -30.7 72 -36 -36 опасность
обморожения
1020.4 1017.9
06 22.03 СЗ 4 24 км ясно -28.4 -32.0 71 -39 -39 опасность
обморожения
1020.4 1017.9 -30.4 -23.2 72
09 22.03 З 7 24 км 1/0
[]
-28.9 -32.5 71 -43 -43 опасность
обморожения
1020.1 1017.6
12 22.03 СЗ 6 30 км 1/1
[Ac trans]
-30.0 -33.8 69 -44 -44 опасность
обморожения
1020.7 1018.2 -30.0 -23.2 49
15 22.03 С 1 40 км 3/0
[]
-27.7 -32.1 66 -29 -27 1020.8 1018.3
18 22.03 СВ 2 40 км 9/0
[Ci sp]
-25.2 -30.0 64 -31 -27 опасность
обморожения
1020.3 1017.8 -30.0 -24.6
21 22.03 З 2 40 км 9/0
[]
-22.3 -26.9 66 -27 -26 1019.6 1017.1
00 23.03 З 2 40 км 1/0
[Ac As Ci sp]
-23.6 -27.2 72 -30 -30 1018.2 1015.7 -30.0 -21.7
03 23.03 З 6 24 км ясно -26.0 -29.5 72 -38 -38 опасность
обморожения
1017.8 1015.3
06 23.03 СЗ 8 24 км 1/0 600 м
[Ac trans]
-26.5 -30.0 72 -41 -41 опасность
обморожения
1016.6 1014.1 -30.0 -21.7 141
09 23.03 СЗ 11 24 км 1/1 1000 м
[]
-28.0 -31.5 72 -45 -45 опасность
обморожения
1016.4 1013.9
12 23.03 СЗ 11 24 км позёмок ясно -29.8 -33.3 71 -47 -47 опасность
обморожения
1017.0 1014.5 -29.8 -21.7 49
15 23.03 СЗ 12 24 км 1/0
[]
-29.6 -33.6 68 -48 -48 опасность
обморожения
1018.8 1016.3
18 23.03 СЗ 11 9000 м метель 1/0
[As trans]
-27.8 -31.9 68 -44 -44 опасность
обморожения
1020.5 1018.0 -30.1 -26.3
21 23.03 СЗ 10 9000 м 4/0
[]
-26.4 -30.4 69 -42 -42 опасность
обморожения
1022.1 1019.6
00 24.03 СЗ 13 16 км позёмок 1/0
[Cs]
-26.6 -30.2 71 -44 -44 опасность
обморожения
1023.0 1020.4 -30.1 -26.2
03 24.03 СЗ 9 24 км ясно -28.4 -32.3 69 -44 -44 опасность
обморожения
1024.8 1022.2

 

Местоположение метеостанции Baker Lake Airport (Канада): широта 64.30 долгота -96.06 высота над уровнем моря 18 м.

В архиве по умолчанию представлена погода в Baker Lake Airport за последнюю неделю. Архивные данные за месяц целиком и за предыдущие месяцы, начиная с января 2011 года, Вы можете получить, выбрав интересующий диапазон дат из раскрывающегося списка и нажав кнопку "Ввод!".

Внимание! Время в таблицах - всемирное. Для получения местного времени необходимо прибавить поправку, которая в Baker Lake Airport равна -6 ч.

Смотрите также архив погоды в соседних городах и на ближайших метеорологических станциях:

Погода в Baker Lake Climate (Канада) (4 км)
Погода в Back River MAPS (Канада) (199 км)
Погода в Rankin Inlet (Канада) (256 км)
Погода в Dubawnt Lake (Канада) (302 км)
Погода в Robertson Lake (Канада) (314 км)
Погода в Wager Bay (Канада) (357 км)
Погода в Arviat Climate (Канада) (370 км)
Погода в Arviat (Канада) (370 км)
Погода в Arviat Airport (Канада) (371 км)
Погода в Hanbury River ARS (Канада) (451 км)

Пояснения к столбцам:

Ветер - указаны скорость ветра в м/с - средняя за 10 мин, порывы в срок и между сроками (в фигурных скобках) и направление, откуда дует ветер: С - северный, СВ - северо-восточный, В - восточный, ЮВ - юго-восточный, Ю - южный, ЮЗ - юго-западный, З - западный, СЗ - северо-западный.
Видимость - горизонтальная дальность видимости в метрах или километрах. При видимости от 1 до 10 км при отсутствии осадков обычно наблюдается дымка, при ухудшении видимости до 1 км и менее - туман. В сухую погоду видимость может ухудшаться дымом, пылью или мглою.
Явления - указаны атмосферные явления, наблюдавшиеся в срок или в последний час перед сроком; фигурными скобками обозначены явления, наблюдавшиеся между сроками (за 1-3 часа до срока); квадратными скобками обозначены град или гололедные отложения с указанием их диаметра в мм.
Облачность - указаны через наклонную черту общая и нижняя облачность в баллах и высота нижней границы облаков в метрах; квадратными скобками обозначены формы облаков: Ci - перистые, Cs - перисто-слоистые, Cc - перисто-кучевые, Ac - высококучевые, As - высокослоистые, Sc - слоисто-кучевые, Ns - слоисто-дождевые, Cu - кучевые, Cb - кучево-дождевые. Подробнее классификацию облаков см. в Атласе облаков (PDF).
T - Температура воздуха - температура, измеренная на высоте 2 м над землей.
Td - Температура точки росы - температура, при понижении до которой содержащийся в воздухе водяной пар достигнет насыщения.
f - Относительная влажность воздуха - влажноcть воздуха, измеренная на высоте 2 м над землей.
Te - Эффективная температура - температура, которую ощущает одетый по сезону человек в тени. Характеристика душности погоды. При расчете учитывается влияние влажности воздуха и скорости ветра на теплоощущения человека.
Tes - Эффективная температура на солнце - температура, которую ощущает человек, с поправкой на солнечный нагрев. Характеристика знойности погоды. Зависит от высоты солнца над горизонтом, облачности и скорости ветра. Ночью, в пасмурную погоду, а также при ветре 12 м/с и более поправка равна нулю.
P - Атмосферное давление - приведенное к уровню моря атмосферное давление.
Po - Атмосферное давление - измеренное на уровне метеостанции атмосферное давление.
Tmin - Минимальная температура - минимум температуры воздуха на высоте 2 м над землей.
Tmax - Максимальная температура - максимум температуры воздуха на высоте 2 м над землей.
R - Количество осадков - Количество выпавших осадков, мм. При наведении курсора мыши на число - период времени, за который выпало указанное количество осадков.
S - Снежный покров - Высота снежного покрова, см. При наведении курсора мыши на число - состояние снежного покрова и степень покрытия местности в баллах.